Date,TemperatureHighF,TemperatureAvgF,TemperatureLowF,DewpointHighF,DewpointAvgF,DewpointLowF,HumidityHigh,HumidityAvg,HumidityLow,PressureMaxIn,PressureMinIn,WindSpeedMaxMPH,WindSpeedAvgMPH,GustSpeedMaxMPH,PrecipitationSumIn
2013-4-1,62.3,46.7,32.9,39.9,26.8,18.7,66,48,21,29.94,29.63,11,2,22,0.02
2013-4-2,55.4,45.8,38.5,36.1,31.5,24.1,83,59,35,29.90,29.68,8,1,19,0.01
2013-4-3,61.0,47.3,36.6,32.8,26.8,18.1,79,50,21,30.06,29.85,5,0,14,0.00
2013-4-4,67.0,48.6,29.7,27.1,23.3,20.8,73,42,18,30.18,29.82,4,1,22,0.00
2013-4-5,48.8,43.4,41.0,26.2,25.2,23.9,55,48,44,29.85,29.80,2,0,5,0.00
2013-4-6,61.3,45.9,34.6,37.5,31.1,21.5,89,63,23,29.95,29.70,5,1,18,0.08
2013-4-7,58.3,45.4,33.5,40.2,30.2,21.6,89,60,26,29.82,29.53,10,0,20,0.02
2013-4-8,58.3,45.3,38.5,38.4,30.0,23.6,88,58,27,29.57,29.17,17,1,29,0.06
2013-4-9,41.6,29.6,19.4,37.4,23.4,12.2,87,78,67,30.12,29.26,7,2,17,0.03
2013-4-10,39.5,26.9,15.3,20.4,11.3,6.1,73,53,30,30.31,30.00,8,2,23,0.02
2013-4-11,52.3,36.2,28.8,31.3,24.0,14.0,81,63,39,30.10,29.73,6,1,16,0.02
2013-4-14,48.6,39.7,34.3,35.8,20.5,5.9,90,51,21,29.71,29.39,10,1,22,0.12
2013-4-15,41.8,34.6,32.4,32.3,29.4,20.4,91,83,44,29.75,29.39,8,1,17,0.44
2013-4-16,56.9,37.7,26.6,37.2,28.3,23.1,92,72,30,29.76,29.40,18,4,30,0.21
2013-4-17,36.0,28.0,23.0,23.1,17.0,8.9,84,64,45,30.17,29.68,8,3,21,0.00
2013-4-18,36.0,27.1,19.7,14.1,8.4,5.2,65,46,29,30.40,30.13,11,2,25,0.00
2013-4-19,47.3,34.3,19.9,30.5,15.3,7.6,79,47,28,30.41,30.00,5,1,20,0.00
2013-4-20,51.7,39.5,32.9,36.0,33.0,28.5,91,79,47,30.04,29.84,10,0,22,0.20
2013-4-21,58.0,45.5,35.6,36.9,29.5,17.7,90,59,27,30.10,29.82,4,1,17,0.00
2013-4-22,57.3,46.7,39.6,30.2,26.6,18.6,66,47,23,29.85,29.69,9,2,20,0.00
2013-4-23,44.6,37.6,29.2,30.9,15.9,3.5,77,45,19,30.16,29.78,10,2,21,0.00
2013-4-24,55.4,39.2,25.7,16.2,12.1,7.4,64,36,16,30.23,30.05,9,1,15,0.00
2013-4-25,36.0,31.6,29.4,16.8,14.9,12.1,59,50,40,30.12,30.08,3,1,6,0.00
2013-4-27,70.0,49.6,30.7,25.8,21.2,18.2,67,37,15,30.22,29.88,8,1,17,0.00
2013-4-28,75.0,54.2,32.6,29.7,24.2,20.9,68,36,15,30.05,29.60,7,1,20,0.00
2013-4-29,76.2,60.5,41.8,31.7,27.1,23.0,60,31,16,29.73,29.39,7,1,19,0.00
2013-4-30,71.0,57.8,44.3,36.9,29.1,23.0,60,36,19,29.54,29.31,11,2,22,0.00